Regional Weather Roundup
Issued by NWS

Home | Current Version | Previous Version | Text Only | Print | Product List | Glossary On
Versions: 1 2 3 4 5 6 7 8 9 10 11 12 13 14 15 16 17 18 19 20 21 22 23 24 25 26 27 28 29 30 31 32 33 34 35 36 37 38 39 40 41 42 43 44 45 46 47 48 49 50
000
ASUS43 KLSX 011559
RWRMO

WEATHER SUMMARY FOR MISSOURI
NATIONAL WEATHER SERVICE SPRINGFIELD MO
1100 AM CDT FRI AUG 01 2014

NOTE: "FAIR" INDICATES FEW OR NO CLOUDS BELOW 12,000 FEET WITH NO
       SIGNIFICANT WEATHER AND/OR OBSTRUCTIONS TO VISIBILITY.
       CURRENT SKY AND/OR WEATHER CONDITIONS ARE NOT AVAILABLE FOR
       CHILLICOTHE AND FARMINGTON.

MOZ001>031-035>038-043-044-053-054-011700-
...NORTHERN AND WESTERN MISSOURI...

CITY           SKY/WX    TMP DP  RH WIND       PRES   REMARKS
KANSAS CTY INT PTSUNNY   75  63  66 E9        30.09S
KANSAS C DTWN  MOSUNNY   75  63  66 E8        30.08S
LEE`S SUMMIT   CLOUDY    74  62  66 E8        30.10S
ST JOSEPH      MOSUNNY   76  66  71 E5        30.08S
CHILLICOTHE      N/A     70  62  76 CALM      30.12R
KIRKSVILLE     PTSUNNY   76  61  59 NW8       30.12R

$$
MOZ066>068-077>081-088>096-101>105-011700-
...SOUTHWEST MISSOURI...

CITY           SKY/WX    TMP DP  RH WIND       PRES   REMARKS
SPRINGFIELD    CLOUDY    68  65  90 CALM      30.13R
JOPLIN         PTSUNNY   74  66  76 S3        30.12S

$$
MOZ032>034-039>042-045>050-055>058-069>072-011700-
...CENTRAL MISSOURI...

CITY           SKY/WX    TMP DP  RH WIND       PRES   REMARKS
COLUMBIA       MOSUNNY   78  62  57 N8        30.11R
JEFFERSON CITY MOSUNNY   78  66  66 CALM      30.09R
ROLLA          SUNNY     79  62  56 VRB6      30.10S
SEDALIA        LGT RAIN  71  64  78 N5        30.11S
OSAGE BEACH    SUNNY     79  64  61 S5        30.10S

$$
MOZ051-052-059>065-011700-
...EAST CENTRAL MISSOURI...

CITY           SKY/WX    TMP DP  RH WIND       PRES   REMARKS
ST LOUIS INTL  MOSUNNY   83  63  50 VRB5      30.10R
SPIRIT OF STL  MOSUNNY   80  64  58 NW3       30.08S
ST CHARLES     SUNNY     80  65  59 W5        30.08S

$$
MOZ072>076-082>087-097>100-106>115-011700-
...SOUTH CENTRAL AND SOUTHEAST MISSOURI...

CITY           SKY/WX    TMP DP  RH WIND       PRES   REMARKS
CAPE GIRARDEAU MOSUNNY   78  66  66 VRB3      30.09S
FARMINGTON     MOSUNNY   72  66  83 CALM      30.14S
POPLAR BLUFF   MOSUNNY   77  64  64 S3        30.09S
WEST PLAINS    PTSUNNY   72  63  73 SE3       30.14R

$$


USA.gov is the U.S. government's official web portal to all federal, state and local government web resources and services.